User: anonymous   Login
Location: Unspecified
(0.0000°N, 0.0000°E)
Time: 14:17:24
(UTC+00:00)
Language:

SJ-7 - Orbit

View from above orbital plane
View from above orbital plane
View from above satellite
View from above satellite

Ground track
Ground track

The orbit data is extracted from the following two-line orbital elements,

1 28737U 05024A   18114.98347801  .00000825  00000-0  78695-4 0  9997
2 28737  97.6637 119.9102 0034237 354.6868   5.3979 14.95623276701555
Epoch (UTC): 24 April 2018 23:36:12
Eccentricity: 0.0034237
inclination: 97.6637°
perigee height: 556 km
apogee height: 604 km
right ascension of ascending node: 119.9102°
argument of perigee: 354.6868°
revolutions per day: 14.95623276
mean anomaly at epoch: 5.3979°
orbit number at epoch: 70155

The dashed part of the orbit path shows where the satellite is in the earth's shadow,  

DLR